STARLINK-11197 [DTC]

Last updated on Sat Aug 03 2024 00:02:04 GMT+0000 (Coordinated Universal Time)

1 60186U 24124D 24215.57456616 .00008750 00000+0 57428-4 0 9997 2 60186 53.1578 161.3563 0001059 103.4182 256.6957 15.76718823 4788

Satellite not in orbit

STARLINK-11197 [DTC]